Location: Oregon Trail
(41.1872°N, 102.0741°W)
Time: 07:52:15
(UTC+00:00)

Cosmos 1408 - Pass Details

Date: 19 November 2019
Orbit: 470 x 497 km, 82.6° (Epoch: 08 December)

Event Time Altitude Azimuth Distance (km) Brightness Sun altitude
Rises 12:07:13 0° 197° (SSW) 2,561 6.2 -17.5°
Reaches altitude 10° 12:09:22 10° 203° (SSW) 1,681 5.2 -17.1°
Maximum altitude 12:12:57 51° 280° (W) 621 2.6 -16.5°
Drops below altitude 10° 12:16:33 10° 357° (N) 1,681 5.1 -15.8°
Sets 12:18:42 0° 3° (N) 2,561 6.1 -15.4°
